Weather History for MMQT - October, 2012

Change the Weather History Date:

Thursday, October 18, 2012

  Actual Average Record
Temperature  
Mean Temperature 68 °F -  
Max Temperature 87 °F 75 °F 87 °F (2012)
Min Temperature 50 °F 51 °F 39 °F (1997)
Cooling Degree Days 4    
Growing Degree Days 18 (Base 50)    
Moisture  
Dew Point 47 °F    
Average Humidity 50    
Maximum Humidity 88    
Minimum Humidity 19    
Precipitation  
Precipitation 0.00 in - - ()
Sea Level Pressure  
Sea Level Pressure 30.09 in    
Wind  
Wind Speed 3 mph ()    
Max Wind Speed 12 mph    
Max Gust Speed -    
Visibility 6.0 miles    
Events      
Averages and records for this station are not official NWS values.
T = Trace of Precipitation, MM = Missing Value Source: Averaged Metar Reports

Daily Weather History Graph

Daily Weather History Graph

Search for Another Location

Airport or City:

Trip Planner

Search our weather history database for the weather conditions in past years. The results will help you decide how hot, cold, wet, or windy it might be!

Date:

Astronomy

Oct. 18, 2012 Rise Set
Actual Time 7:37 AM CDT 7:14 PM CDT
Civil Twilight 7:14 AM CDT 7:36 PM CDT
Nautical Twilight 6:48 AM CDT 8:02 PM CDT
Astronomical Twilight 6:23 AM CDT 8:27 PM CDT
Moon 10:55 AM CDT (10/18) 10:15 PM CDT (10/18)
Length of Visible Light 12h 21m
Length of Day
11h 36m
Waxing Crescent, 14% of the Moon is Illuminated
Oct 18
Waxing Crescent
Oct 21
First Quarter
Oct 29
Full
Nov 6
Last Quarter
Nov 13
New

Hourly Weather History & Observations

Time (CDT) Temp. Dew Point Humidity Pressure Visibility Wind Dir Wind Speed Gust Speed Precip Events Conditions
12:45 AM 66 °F 49 °F 44% 29.68 in 6 mi East 2.2 mph - -   Scattered Clouds
12:45 AM 57.2 °F 48.2 °F 72% 30.22 in 5.0 mi Calm Calm - N/A   Mostly Cloudy
1:45 AM 55.4 °F 48.2 °F 77% 30.22 in 5.0 mi SE 5.8 mph - N/A   Mostly Cloudy
2:45 AM 53.6 °F 50.0 °F 88% 30.22 in 5.0 mi Calm Calm - N/A   Mostly Cloudy
3:40 AM 64 °F 50 °F 49% 29.75 in 6 mi Calm Calm - -   Scattered Clouds
3:45 AM 53.6 °F 50.0 °F 88% 30.22 in 5.0 mi Calm Calm - N/A   Mostly Cloudy
4:45 AM 53.6 °F 50.0 °F 88% 30.21 in 5.0 mi Calm Calm - N/A   Scattered Clouds
5:45 AM 50.0 °F 46.4 °F 87% 30.21 in 5.0 mi Calm Calm - N/A   Scattered Clouds
6:45 AM 50.0 °F 44.6 °F 82% 30.23 in 6.0 mi Calm Calm - N/A   Scattered Clouds
6:50 AM 60 °F 50 °F 60% 29.78 in 3 mi South 2.2 mph - -  
7:45 AM 50.0 °F 44.6 °F 82% 30.23 in 6.0 mi Calm Calm - N/A   Scattered Clouds
8:45 AM 57.2 °F 42.8 °F 59% 30.25 in 6.0 mi ESE 5.8 mph - N/A   Scattered Clouds
9:45 AM 64.4 °F 41.0 °F 42% 30.25 in 5.0 mi ENE 5.8 mph - N/A   Scattered Clouds
10:45 AM 69.8 °F 41.0 °F 35% 30.26 in 5.0 mi West 5.8 mph - N/A   Clear
11:45 AM 73.4 °F 42.8 °F 33% 30.26 in 5.0 mi WSW 6.9 mph - N/A   Clear
12:45 PM 78.8 °F 42.8 °F 28% 30.25 in 5.0 mi West 6.9 mph - N/A   Clear
12:50 PM 80 °F 52 °F 27% 29.79 in 6 mi WNW 4.5 mph - -   Haze
1:45 PM 82.4 °F 46.4 °F 28% 30.22 in 5.0 mi West 5.8 mph - N/A   Scattered Clouds
2:45 PM 80.6 °F 44.6 °F 28% 30.18 in 5.0 mi Calm Calm - N/A   Scattered Clouds
3:45 PM 80.6 °F 44.6 °F 28% 30.18 in 5.0 mi Calm Calm - N/A   Scattered Clouds
3:55 PM 87 °F 51 °F 19% 29.62 in 12 mi North 4.5 mph - -   Haze
4:45 PM 80.6 °F 44.6 °F 28% 30.12 in 5.0 mi NW 11.5 mph - N/A   Mostly Cloudy
5:45 PM 80.6 °F 46.4 °F 30% 30.12 in 5.0 mi NW 11.5 mph - N/A   Mostly Cloudy
6:45 PM 77.0 °F 46.4 °F 34% 30.15 in 5.0 mi NNE 11.5 mph - N/A   Mostly Cloudy
6:55 PM 79 °F 51 °F 27% 29.56 in 12 mi NE 8.9 mph - -   Haze
7:45 PM 75.2 °F 46.4 °F 36% 30.14 in 6.0 mi NE 5.8 mph - N/A   Mostly Cloudy
8:45 PM 73.4 °F 46.4 °F 38% 30.16 in 6.0 mi NE 11.5 mph - N/A   Mostly Cloudy
9:45 PM 68.0 °F 51.8 °F 56% 30.20 in 6.0 mi ESE 8.1 mph - N/A   Mostly Cloudy
9:55 PM 72 °F 52 °F 38% 29.58 in 12 mi SE 11.2 mph - -   Scattered Clouds
10:45 PM 62.6 °F 50.0 °F 63% 30.24 in 6.0 mi ESE 4.6 mph - N/A   Mostly Cloudy
11:45 PM 62.6 °F 51.8 °F 68% 30.24 in 6.0 mi ENE 4.6 mph - N/A   Mostly Cloudy